Location: Great Falls
(47.5000°N, 111.3000°W)
Time: 02:48:35
(UTC-06:00)

Tiangong 2 - Visible Passes

Search period start: 20 August 2018 00:00
Search period end: 30 August 2018 00:00
Orbit: 384 x 395 km, 42.8° (Epoch: 19 August)

Date Brightness Start Highest point End Pass type
(mag) Time Alt. Az. Time Alt. Az. Time Alt. Az.
20 Aug 3.7 04:16:20 13° SE 04:16:20 13° SE 04:17:08 10° ESE visible
20 Aug 2.3 05:48:48 10° SW 05:51:41 31° S 05:54:34 10° ESE visible
21 Aug 2.4 04:53:24 24° S 04:53:56 26° SSE 04:56:40 10° ESE visible
22 Aug 3.8 03:58:09 13° ESE 03:58:09 13° ESE 03:58:39 10° ESE visible
22 Aug 2.0 05:30:29 16° WSW 05:32:37 34° S 05:35:34 10° ESE visible
23 Aug 2.3 04:35:16 30° SSE 04:35:16 30° SSE 04:37:43 10° ESE visible
24 Aug 1.9 05:12:25 26° SW 05:13:31 34° S 05:16:28 10° ESE visible
25 Aug 3.1 04:17:19 21° SE 04:17:19 21° SE 04:18:40 10° ESE visible
25 Aug 2.4 05:49:39 11° WSW 05:52:09 24° SSW 05:54:50 10° SE visible
26 Aug 2.2 04:54:40 29° S 04:54:40 29° S 04:57:14 10° SE visible
27 Aug 2.8 05:32:10 17° SW 05:32:57 18° SSW 05:35:12 10° SSE visible
28 Aug 3.7 04:37:31 12° SE 04:37:31 12° SE 04:37:49 10° SE visible
